| time (UTC) | temp F | wind direction | speed knots | gust knots | rain 1hr in | rain 24hr in | rain mn in | humidity % | barometer mb |
| 20260906103005 | 64 | 90 | 0.0 | 0.0 | 0.00 | 0.00 | 0.00 | 86 | 1015.4 |
| 20260906101534 | 64 | 90 | 0.0 | 0.0 | 0.00 | 0.00 | 0.00 | 86 | 1015.4 |
| 20260906100007 | 64 | 90 | 0.0 | 0.0 | 0.00 | 0.00 | 0.00 | 86 | 1015.3 |
| 20260906094556 | 64 | 90 | 0.0 | 0.0 | 0.00 | 0.00 | 0.00 | 86 | 1015.1 |
| 20260906093011 | 65 | 61 | 0.0 | 0.0 | 0.00 | 0.00 | 0.00 | 86 | 1015.1 |
| 20260906091539 | 65 | 68 | 0.0 | 0.9 | 0.00 | 0.00 | 0.00 | 86 | 1014.9 |
| 20260906090011 | 65 | 113 | 0.0 | 0.0 | 0.00 | 0.00 | 0.00 | 86 | 1015.0 |
| 20260906084540 | 66 | 113 | 0.0 | 0.0 | 0.00 | 0.01 | 0.00 | 86 | 1015.1 |
| 20260906083010 | 66 | 113 | 0.0 | 0.0 | 0.00 | 0.01 | 0.00 | 86 | 1014.8 |
| 20260906081540 | 66 | 119 | 0.0 | 0.0 | 0.00 | 0.01 | 0.00 | 86 | 1014.8 |
| 20260906080010 | 67 | 51 | 0.0 | 0.0 | 0.00 | 0.01 | 0.00 | 86 | 1014.7 |
| 20260906074541 | 67 | 51 | 0.0 | 0.9 | 0.00 | 0.01 | 0.00 | 85 | 1014.5 |
| 20260906073018 | 67 | 111 | 0.0 | 1.7 | 0.00 | 0.01 | 0.00 | 85 | 1014.4 |
| 20260906071543 | 68 | 171 | 0.0 | 1.7 | 0.00 | 0.01 | 0.00 | 84 | 1014.3 |
| 20260906070014 | 68 | 115 | 0.0 | 1.7 | 0.00 | 0.01 | 0.00 | 84 | 1014.6 |
| 20260906064545 | 68 | 82 | 0.0 | 2.6 | 0.00 | 0.01 | 0.00 | 85 | 1014.6 |
| 20260906063018 | 68 | 202 | 0.0 | 1.7 | 0.00 | 0.01 | 0.00 | 85 | 1014.7 |
| 20260906061547 | 68 | 142 | 0.0 | 1.7 | 0.00 | 0.01 | 0.00 | 86 | 1014.7 |
| 20260906060027 | 68 | 118 | 0.0 | 1.7 | 0.00 | 0.01 | 0.00 | 86 | 1014.6 |
| 20260906054608 | 69 | 67 | 0.0 | 1.7 | 0.00 | 0.07 | 0.00 | 86 | 1014.4 |
| 20260906053028 | 69 | 304 | 0.0 | 0.9 | 0.00 | 0.07 | 0.00 | 86 | 1014.1 |
| 20260906051607 | 70 | 66 | 0.0 | 3.5 | 0.00 | 0.07 | 0.00 | 85 | 1014.0 |
| 20260906050030 | 70 | 69 | 0.0 | 2.6 | 0.00 | 0.07 | 0.00 | 84 | 1014.2 |
| 20260906044608 | 71 | 74 | 0.9 | 4.3 | 0.00 | 0.07 | 0.00 | 84 | 1013.9 |
| 20260906043032 | 71 | 40 | 0.0 | 3.5 | 0.00 | 0.07 | 0.00 | 84 | 1013.9 |
| 20260906041502 | 72 | 71 | 0.0 | 7.0 | 0.00 | 0.07 | 0.00 | 84 | 1013.6 |
| 20260906040034 | 72 | 69 | 0.0 | 4.3 | 0.00 | 0.07 | 0.00 | 86 | 1013.7 |
| 20260906034507 | 73 | 19 | 0.0 | 1.7 | 0.00 | 0.07 | 0.07 | 88 | 1013.6 |
| 20260906033045 | 73 | 98 | 0.9 | 3.5 | 0.00 | 0.07 | 0.07 | 88 | 1013.6 |
| 20260906031507 | 73 | 41 | 1.7 | 6.1 | 0.00 | 0.07 | 0.07 | 88 | 1013.7 |
| 20260906030038 | 73 | 21 | 0.9 | 3.5 | 0.00 | 0.07 | 0.07 | 88 | 1013.7 |
| 20260906024526 | 73 | 58 | 0.9 | 5.2 | 0.00 | 0.07 | 0.07 | 88 | 1013.7 |
| 20260906023040 | 74 | 66 | 0.9 | 3.5 | 0.00 | 0.07 | 0.07 | 88 | 1013.4 |
| 20260906021509 | 74 | 38 | 0.9 | 5.2 | 0.00 | 0.07 | 0.07 | 87 | 1013.4 |
| 20260906020039 | 74 | 296 | 0.0 | 2.6 | 0.00 | 0.07 | 0.07 | 85 | 1013.4 |
| 20260906014511 | 74 | 10 | 0.0 | 0.9 | 0.00 | 0.07 | 0.07 | 84 | 1013.3 |
| 20260906013047 | 74 | 292 | 0.0 | 2.6 | 0.00 | 0.07 | 0.07 | 84 | 1013.1 |
| 20260906011511 | 74 | 59 | 0.0 | 2.6 | 0.00 | 0.07 | 0.07 | 84 | 1012.9 |
| 20260906010049 | 74 | 72 | 0.0 | 1.7 | 0.00 | 0.07 | 0.07 | 84 | 1012.8 |
| 20260906004514 | 74 | 39 | 0.0 | 3.5 | 0.00 | 0.07 | 0.07 | 84 | 1012.7 |
| 20260906003045 | 74 | 49 | 0.0 | 3.5 | 0.00 | 0.07 | 0.07 | 83 | 1012.5 |
| 20260906001518 | 75 | 54 | 0.0 | 4.3 | 0.00 | 0.07 | 0.07 | 83 | 1012.3 |
| 20260906000047 | 75 | 335 | 0.9 | 4.3 | 0.00 | 0.07 | 0.07 | 83 | 1012.2 |
| 20260905234518 | 76 | 43 | 1.7 | 5.2 | 0.00 | 0.07 | 0.07 | 82 | 1012.2 |
| 20260905233050 | 76 | 47 | 0.0 | 4.3 | 0.00 | 0.07 | 0.07 | 82 | 1012.0 |
| 20260905231520 | 77 | 138 | 0.0 | 2.6 | 0.00 | 0.07 | 0.07 | 82 | 1012.0 |
| 20260905230051 | 77 | 63 | 0.9 | 4.3 | 0.00 | 0.07 | 0.07 | 82 | 1011.8 |
| 20260905224521 | 78 | 40 | 0.0 | 6.1 | 0.00 | 0.07 | 0.07 | 81 | 1011.7 |
| 20260905223053 | 78 | 11 | 0.0 | 4.3 | 0.00 | 0.07 | 0.07 | 81 | 1011.6 |
| 20260905221523 | 78 | 61 | 0.0 | 4.3 | 0.00 | 0.07 | 0.07 | 82 | 1011.4 |
| 20260905220056 | 78 | 350 | 0.0 | 6.1 | 0.00 | 0.07 | 0.07 | 82 | 1011.2 |
| 20260905214526 | 79 | 36 | 1.7 | 7.8 | 0.00 | 0.07 | 0.07 | 80 | 1011.2 |
| 20260905213103 | 80 | 346 | 0.9 | 9.6 | 0.00 | 0.07 | 0.07 | 79 | 1011.1 |
| 20260905211534 | 80 | 41 | 2.6 | 7.0 | 0.00 | 0.07 | 0.07 | 79 | 1011.0 |
| 20260905210058 | 80 | 316 | 0.9 | 7.8 | 0.00 | 0.07 | 0.07 | 79 | 1011.2 |
| 20260905204529 | 80 | 310 | 2.6 | 7.8 | 0.00 | 0.07 | 0.07 | 78 | 1011.2 |
| 20260905203104 | 80 | 36 | 1.7 | 10.4 | 0.00 | 0.07 | 0.07 | 78 | 1011.1 |
| 20260905201528 | 81 | 5 | 2.6 | 5.2 | 0.00 | 0.07 | 0.07 | 78 | 1011.3 |
| 20260905194530 | 80 | 349 | 2.6 | 7.0 | 0.00 | 0.07 | 0.07 | 78 | 1011.6 |
| 20260905193114 | 80 | 49 | 3.5 | 8.7 | 0.00 | 0.07 | 0.07 | 79 | 1011.5 |
| 20260905191532 | 80 | 355 | 1.7 | 9.6 | 0.00 | 0.07 | 0.07 | 80 | 1011.6 |
| 20260905190002 | 81 | 300 | 2.6 | 8.7 | 0.00 | 0.07 | 0.07 | 79 | 1011.5 |
| 20260905184541 | 81 | 163 | 1.7 | 7.8 | 0.00 | 0.07 | 0.07 | 78 | 1011.7 |
| 20260905183004 | 82 | 20 | 1.7 | 7.8 | 0.00 | 0.07 | 0.07 | 78 | 1011.6 |
| 20260905181539 | 82 | 10 | 0.9 | 6.1 | 0.00 | 0.07 | 0.07 | 79 | 1011.5 |
| 20260905180009 | 81 | 360 | 3.5 | 7.0 | 0.00 | 0.07 | 0.07 | 79 | 1011.4 |
| 20260905174538 | 82 | 297 | 0.9 | 7.0 | 0.00 | 0.07 | 0.07 | 77 | 1011.5 |
| 20260905173008 | 82 | 268 | 1.7 | 5.2 | 0.00 | 0.07 | 0.07 | 78 | 1011.5 |
| 20260905171538 | 82 | 311 | 1.7 | 5.2 | 0.00 | 0.07 | 0.07 | 80 | 1011.6 |
| 20260905170007 | 80 | 355 | 0.9 | 7.0 | 0.00 | 0.07 | 0.07 | 80 | 1011.7 |
| 20260905164539 | 80 | 329 | 1.7 | 7.0 | 0.00 | 0.30 | 0.07 | 82 | 1011.8 |
| 20260905163009 | 80 | 309 | 2.6 | 7.0 | 0.00 | 0.30 | 0.07 | 82 | 1011.7 |
| 20260905161556 | 80 | 295 | 2.6 | 5.2 | 0.00 | 0.30 | 0.07 | 81 | 1011.6 |
| 20260905160011 | 79 | 341 | 0.9 | 5.2 | 0.00 | 0.30 | 0.07 | 84 | 1011.5 |
| 20260905154543 | 78 | 271 | 1.7 | 4.3 | 0.00 | 0.30 | 0.07 | 85 | 1011.6 |
| 20260905153013 | 77 | 52 | 1.7 | 6.1 | 0.00 | 0.30 | 0.07 | 86 | 1011.5 |
| 20260905151545 | 76 | 348 | 0.0 | 0.0 | 0.00 | 0.30 | 0.07 | 87 | 1011.5 |
| 20260905150015 | 76 | 184 | 0.0 | 0.0 | 0.00 | 0.30 | 0.07 | 89 | 1011.2 |
| 20260905144539 | 75 | 57 | 0.0 | 0.0 | 0.00 | 0.30 | 0.07 | 90 | 1011.1 |
| 20260905143017 | 74 | 147 | 0.0 | 0.0 | 0.00 | 0.30 | 0.07 | 90 | 1011.2 |
| 20260905141541 | 74 | 53 | 0.0 | 0.0 | 0.00 | 0.30 | 0.07 | 90 | 1011.4 |
| 20260905140011 | 73 | 53 | 0.0 | 0.0 | 0.00 | 0.30 | 0.07 | 91 | 1011.3 |
| 20260905134547 | 72 | 297 | 0.0 | 0.0 | 0.00 | 0.30 | 0.07 | 91 | 1011.3 |
| 20260905133013 | 72 | 297 | 0.0 | 0.0 | 0.00 | 0.30 | 0.07 | 91 | 1011.1 |
| 20260905131544 | 72 | 140 | 0.0 | 0.0 | 0.00 | 0.30 | 0.07 | 91 | 1011.2 |
| 20260905130014 | 71 | 159 | 0.0 | 0.0 | 0.00 | 0.30 | 0.07 | 91 | 1011.1 |
| 20260905124546 | 71 | 159 | 0.0 | 0.0 | 0.00 | 0.30 | 0.07 | 91 | 1010.9 |
| 20260905123020 | 71 | 88 | 0.0 | 0.0 | 0.00 | 0.30 | 0.07 | 90 | 1010.9 |
| 20260905121548 | 71 | 75 | 0.0 | 0.0 | 0.00 | 0.30 | 0.07 | 91 | 1010.6 |
| 20260905120018 | 71 | 75 | 0.0 | 0.0 | 0.00 | 0.30 | 0.07 | 90 | 1010.4 |
| 20260905114551 | 71 | 75 | 0.0 | 0.0 | 0.00 | 0.30 | 0.07 | 90 | 1010.2 |
| 20260905113021 | 72 | 29 | 0.0 | 0.0 | 0.00 | 0.30 | 0.07 | 90 | 1010.1 |
| 20260905111604 | 72 | 144 | 0.0 | 0.0 | 0.00 | 0.30 | 0.07 | 90 | 1009.9 |
| 20260905110023 | 73 | 71 | 0.0 | 0.0 | 0.00 | 0.30 | 0.07 | 90 | 1009.8 |
| 20260905104612 | 73 | 61 | 0.0 | 0.0 | 0.00 | 0.30 | 0.07 | 90 | 1009.9 |